Cosmos 1805 - Orbit

View from above orbital plane
View from above orbital plane
View from above satellite
View from above satellite

Ground track
Ground track

The orbit data is extracted from the following two-line orbital elements,

1 17191U 86097A   13144.15129776  .00002378  00000-0  16522-3 0  6222
2 17191 082.5022 044.0777 0012224 099.8459 260.4149 15.05058184439676
Epoch (UTC): 24 May 2013 03:37:52
Eccentricity: 0.0012224
inclination: 82.5022°
perigee height: 543 km
apogee height: 560 km
right ascension of ascending node: 44.0777°
argument of perigee: 99.8459°
revolutions per day: 15.05058184
mean anomaly at epoch: 260.4149°
orbit number at epoch: 43967

The dashed part of the orbit path shows where the satellite is in the earth's shadow,  

Developed and maintained by Chris Peat, Heavens-Above GmbH. Please read the updated FAQ before sending e-mail. Imprint. DLR